www.pogodaiklimat.ru

Погода и климат >> Архив погоды >> Кипр >> Никосия


ПОГОДА в Никосии

  • Прогноз погоды в Никосии
  • Монитор погоды в Никосии

АРХИВ ПОГОДЫ в Никосии

Время (UTC), дата Ветер
(напр.,м/с)
 
Видим.   Явления Облачность Т
(С)
Тd
(С)
f
(%)
Тe
(С)
Тes
(С)
Комфортность P
(гПа)
Po
(гПа)
Тmin
(С)
Tmax
(С)
R
(мм)
R24
(мм)
S
(см)
03 13.09 З 4 10 км ясно +21.0 +12.3 58 +24 +24 комфорт 1009.2 996.0
06 13.09 З 3 10 км 1/1 750 м
[Cu hum]
+28.0 +15.5 47 +31 +35 душно 1010.0 996.8 +20.1
09 13.09 Ю 2 10 км 1/1 750 м
[Cu hum]
+33.1 +15.0 34 +35 +48 душно 1009.0 995.8
12 13.09 В 3 10 км 4/4 750 м
[Cb calv]
+35.1 +10.6 23 +34 +40 очень
жарко
1007.5 994.5
15 13.09 ЮВ 4 10 км 1/1 750 м
[Cu med, cong]
+32.2 +15.6 37 +35 +35 очень
душно
1007.1 994.2
18 13.09 ЮЗ 3 10 км 1/1 750 м
[Cu hum]
+27.6 +19.6 62 +33 +33 очень
душно
1007.8 995.0 +36.2
21 13.09 З 4 10 км 1/1 750 м
[Cu hum]
+24.7 +21.3 81 +31 +31 очень
душно
1007.5 994.5
00 14.09 З 4 10 км 1/1 750 м
[Cu hum]
+23.4 +20.8 85 +31 +31 очень
душно
1007.1 994.0
03 14.09 штиль 0 10 км 1/1 750 м
[Cu hum]
+21.6 +19.9 90 +27 +27 душно 1007.2 994.0
06 14.09 штиль 0 10 км 1/1 750 м
[Cu hum]
+26.4 +20.8 71 +33 +39 очень
душно
1007.9 994.6 +21.4
09 14.09 ЮВ 3 10 км 6/6 750 м
[Cu med, cong]
+30.9 +18.2 47 +36 +40 очень
душно
1007.2 994.0
12 14.09 Ю 4 10 км 5/5 750 м
[Cu hum]
+32.2 +16.0 38 +35 +39 очень
душно
1006.0 992.9
15 14.09 З 8 10 км 5/5 750 м
[Cb cap]
+29.9 +20.4 57 +37 +37 очень
душно
1005.5 992.6
18 14.09 З 6 10 км 5/5 750 м
[Cu hum]
+25.7 +19.7 69 +31 +31 очень
душно
1006.9 993.9 +34.2
21 14.09 З 3 10 км 3/3 750 м
[Cu hum]
+23.0 +17.8 73 +28 +28 душно 1007.2 994.2
00 15.09 СЗ 3 10 км 1/1 750 м
[Cu hum]
+20.5 +16.6 78 +24 +24 комфорт 1006.9 993.8
03 15.09 З 3 10 км зарница 1/1 750 м
[Cb cap]
+21.0 +15.6 71 +25 +25 комфорт 1007.0 993.7
06 15.09 СЗ 4 10 км 5/5 750 м
[Cb cap]
+26.0 +17.0 58 +30 +32 душно 1008.0 994.6 +20.3
12 15.09 Ю 5 10 км в посл. час гроза 6/6 750 м
[Cb cap]
+27.3 +17.6 55 +31 +34 душно 1008.1 995.0
18 15.09 З 3 10 км 1/1 750 м
[Cu hum]
+25.9 +14.2 48 +28 +28 жарко 1008.6 995.5 +30.6
21 15.09 З 4 10 км 1/1 750 м
[Cu hum]
+23.9 +16.3 62 +27 +27 жарко 1008.4 995.4
00 16.09 З 4 10 км 1/1 750 м
[Cu hum]
+23.4 +14.8 58 +27 +27 душно 1008.3 995.1
06 16.09 С 3 10 км 1/1 750 м
[Cu hum]
+27.9 +13.7 42 +30 +34 жарко 1010.1 996.9 +21.2
09 16.09 С 2 10 км 1/1 750 м
[Cu hum]
+31.7 +12.8 32 +33 +46 жарко 1010.2 997.0
12 16.09 Ю 8 10 км 6/6 750 м
[Cb cap]
+30.4 +15.2 40 +33 +34 душно 1009.8 996.7
15 16.09 СВ 6 10 км {ливн. осадки} 6/6 750 м
[Cb cap]
+28.2 +17.3 52 +32 +32 душно 1010.0 997.0
18 16.09 З 3 10 км {ливн. осадки} 1/1 750 м
[Cu hum]
+24.0 +17.1 65 +28 +28 душно 1011.3 998.2 +34.0 0.1
21 16.09 З 4 10 км ясно +22.6 +16.7 69 +27 +27 душно 1012.0 998.9
00 17.09 З 4 10 км ясно +21.9 +13.1 57 +25 +25 комфорт 1011.6 998.3
06 17.09 З 3 10 км ясно +25.5 +13.2 46 +27 +31 жарко 1013.5 1000.0 +18.5
09 17.09 ЮЗ 3 10 км 3/3 750 м
[Cu hum]
+30.9 +10.1 28 +31 +40 жарко 1013.5 1000.2
12 17.09 З 3 10 км 3/3 750 м
[Cu hum]
+33.3 +7.7 21 +32 +38 жарко 1012.1 998.9
15 17.09 ЮВ 5 10 км 3/3 750 м
[Cu hum]
+29.5 +15.5 43 +32 +33 душно 1011.9 998.9
18 17.09 З 4 10 км 1/1 750 м
[Cu hum]
+25.2 +17.3 62 +29 +29 душно 1013.4 1000.3 +34.4
21 17.09 З 3 10 км ясно +21.8 +17.0 74 +26 +26 душно 1013.9 1000.8
00 18.09 З 4 10 км ясно +21.1 +16.8 76 +25 +25 комфорт 1013.3 1000.1
03 18.09 З 2 10 км ясно +19.3 +15.6 79 +22 +22 комфорт 1013.8 1000.4
06 18.09 З 2 10 км ясно +24.6 +16.5 61 +28 +33 душно 1015.1 1001.6 +18.6
09 18.09 ЮВ 3 10 км 1/1 750 м
[Cu hum]
+31.9 +12.5 31 +33 +44 жарко 1014.8 1001.4
12 18.09 В 3 10 км 1/1 750 м
[Cu hum]
+34.9 +11.1 24 +34 +43 очень
жарко
1013.2 999.9
15 18.09 З 7 10 км 3/3 750 м
[Cu hum]
+31.2 +18.5 47 +36 +36 очень
душно
1012.7 999.7
18 18.09 З 5 10 км 1/1 750 м
[Cu hum]
+25.6 +18.7 66 +31 +31 очень
душно
1013.5 1000.5 +35.3
21 18.09 З 4 10 км ясно +22.7 +18.1 75 +28 +28 душно 1013.4 1000.3
00 19.09 З 4 10 км ясно +20.7 +18.1 85 +25 +25 комфорт 1012.7 999.5
03 19.09 З 4 10 км ясно +19.6 +17.4 87 +22 +22 комфорт 1012.8 999.5
06 19.09 СЗ 5 10 км ясно +26.2 +17.2 58 +30 +33 душно 1013.7 1000.2 +18.4
09 19.09 СЗ 4 10 км 1/1 750 м
[Cu hum]
+33.0 +9.5 24 +32 +42 жарко 1013.2 999.9
12 19.09 С 3 10 км 1/1 750 м
[Cu hum]
+35.2 +10.7 23 +35 +43 очень
жарко
1011.5 998.4
18 19.09 З 6 10 км ясно +25.3 +20.8 76 +32 +32 очень
душно
1011.9 998.9 +35.8
00 20.09 З 5 10 км ясно +20.9 +17.8 82 +25 +25 комфорт 1011.3 998.1

 

Местоположение метеостанции Никосия (Кипр): широта 35.15 долгота 33.50 высота над уровнем моря 110 м.

В архиве по умолчанию представлена погода в Никосии за последнюю неделю. Архивные данные за месяц целиком и за предыдущие месяцы, начиная с января 2011 года, Вы можете получить, выбрав интересующий диапазон дат из раскрывающегося списка и нажав кнопку "Ввод!".


*Определитесь, кто Вы:
робот инопланетянин человек

Внимание! Время в таблицах - всемирное. Для получения местного времени необходимо прибавить поправку, которая равна 2 ч.

Смотрите также архив погоды в соседних городах и на ближайших метеорологических станциях:

Погода в Аталассе (Кипр) (9 км)
Погода на Базе ВВС Gecitkale (Кипр) (23 км)
Погода в Лефконико (Кипр) (24 км)
Погода в Киринии (Кипр) (28 км)
Погода в Ларнаке (Кипр) (32 км)
Погода в Искеле (Кипр) (37 км)
Погода в Фамагусте (Кипр) (41 км)
Погода в Unknown (Кипр) (48 км)
Погода в Акденизе (Кипр) (51 км)
Погода в Гиалусе (Кипр) (63 км)

Пояснения к столбцам:

Ветер - указаны скорость ветра в м/с - средняя за 10 мин, порывы в срок и между сроками (в фигурных скобках) и направление, откуда дует ветер: С - северный, СВ - северо-восточный, В - восточный, ЮВ - юго-восточный, Ю - южный, ЮЗ - юго-западный, З - западный, СЗ - северо-западный.
Видимость - горизонтальная дальность видимости в метрах или километрах. При видимости от 1 до 10 км при отсутствии осадков обычно наблюдается дымка, при ухудшении видимости до 1 км и менее - туман. В сухую погоду видимость может ухудшаться дымом, пылью или мглою.
Явления - указаны атмосферные явления, наблюдавшиеся в срок или в последний час перед сроком; фигурными скобками обозначены явления, наблюдавшиеся между сроками (за 1-3 часа до срока); квадратными скобками обозначены град или гололедные отложения с указанием их диаметра в мм.
Облачность - указаны через наклонную черту общая и нижняя облачность в баллах и высота нижней границы облаков в метрах; квадратными скобками обозначены формы облаков: Ci - перистые, Cs - перисто-слоистые, Cc - перисто-кучевые, Ac - высококучевые, As - высокослоистые, Sc - слоисто-кучевые, Ns - слоисто-дождевые, Cu - кучевые, Cb - кучево-дождевые. Подробнее классификацию облаков см. в Атласе облаков (PDF).
T - Температура воздуха - температура, измеренная на высоте 2 м над землей.
Td - Температура точки росы - температура, при понижении до которой содержащийся в воздухе водяной пар достигнет насыщения.
f - Относительная влажность воздуха - влажноcть воздуха, измеренная на высоте 2 м над землей.
Te - Эффективная температура - температура, которую ощущает одетый по сезону человек в тени. Характеристика душности погоды. При расчете учитывается влияние влажности воздуха и скорости ветра на теплоощущения человека.
Tes - Эффективная температура на солнце - температура, которую ощущает человек, с поправкой на солнечный нагрев. Характеристика знойности погоды. Зависит от высоты солнца над горизонтом, облачности и скорости ветра. Ночью, в пасмурную погоду, а также при ветре 12 м/с и более поправка равна нулю.
P - Атмосферное давление - приведенное к уровню моря атмосферное давление.
Po - Атмосферное давление - измеренное на уровне метеостанции атмосферное давление.
Tmin - Минимальная температура - минимум температуры воздуха на высоте 2 м над землей.
Tmax - Максимальная температура - максимум температуры воздуха на высоте 2 м над землей.
R - Количество осадков - Количество выпавших осадков за период времени, мм. При наведении курсора мыши на число - период времени, за который выпало указанное количество осадков.
R24 - Количество осадков - Количество выпавших осадков за 24 часа, мм.
S - Снежный покров - Высота снежного покрова, см. При наведении курсора мыши на число - состояние снежного покрова и степень покрытия местности в баллах.